Wind_Speed
3 5 4 3 4 6 5 5 5 5 5 6 5 4 6 6 8 9 8 8 5 3 6 5 6 9 5 4 5 5 7 9 8 8 8 7 8 8 9 9 9 9 9 14 20 21 23 25 27 28 29 31 33 34 36 36 36 36 35 35 35 35 37 40 39 37 35 31 26 19 17 11 16 27 30 33 35 35 34 34 35 37 39 39 38 37
5 4 4 5 5 5 6 6 5 6 7 7 5 6 6 4 7 10 8 7 5 4 7 5 7 11 5 5 4 6 7 7 7 8 9 9 9 8 9 9 8 7 7 12 17 20 23 24 26 28 29 31 32 33 34 35 35 35 36 35 33 33 34 36 36 35 34 32 29 22 21 21 8 15 22 26 30 33 33 33 33 34 37 40 40 38
5 1 5 4 4 5 6 6 7 7 6 6 5 5 6 4 5 8 7 6 6 4 8 8 9 9 1 6 5 6 8 7 8 10 9 9 9 8 7 7 7 7 8 10 12 17 21 22 24 26 27 29 29 30 32 33 34 36 37 35 33 33 34 34 33 33 32 31 30 26 25 25 18 9 2 8 12 18 24 28 32 34 34 36 37 37
3 4 4 4 7 7 7 8 8 7 5 5 6 4 5 5 5 7 8 10 9 5 8 12 11 4 4 6 5 6 7 9 10 11 10 9 8 7 6 6 7 8 9 9 11 14 19 21 23 24 26 27 28 30 31 32 33 34 35 34 34 34 34 35 34 31 30 31 31 28 25 22 21 21 16 9 5 4 6 14 23 28 30 32 33 35
2 7 3 6 8 8 7 8 9 7 6 5 5 4 6 8 7 8 9 11 12 8 8 9 9 3 5 4 5 5 7 10 9 10 10 8 8 8 7 8 8 8 8 9 10 12 17 20 22 24 25 26 27 29 30 31 31 31 33 33 33 34 34 35 36 33 30 32 34 32 28 25 24 26 28 23 19 19 16 10 10 18 23 26 28 30
3 6 3 7 8 9 7 6 7 6 6 7 5 5 6 8 9 10 10 9 9 9 4 2 4 4 3 5 6 5 6 8 7 9 11 9 9 9 9 9 9 8 8 8 9 12 16 19 20 23 25 26 27 27 28 29 30 30 31 32 31 33 35 35 36 35 32 32 34 35 33 30 29 28 29 29 26 25 23 20 13 8 15 21 25 27
3 4 6 7 7 9 8 4 5 6 6 7 5 5 6 7 8 12 12 7 3 8 7 1 3 6 2 4 7 7 8 9 8 10 10 9 9 9 8 8 9 9 8 8 9 11 15 18 19 21 23 24 25 26 27 28 29 30 31 32 30 30 33 35 36 36 35 33 31 31 28 25 25 23 24 26 27 27 26 25 20 12 8 12 19 25
4 7 9 8 7 7 7 4 5 5 5 7 8 4 6 9 10 13 11 7 5 7 11 7 4 5 5 1 5 8 10 10 9 10 10 9 9 9 9 9 9 9 8 8 7 9 13 16 17 18 20 22 22 24 26 26 28 29 30 32 30 29 31 33 34 35 34 33 30 29 26 24 23 22 24 27 28 29 29 27 24 20 15 9 9 15
3 6 6 6 6 5 3 3 7 5 3 9 11 7 8 9 11 11 8 8 7 3 9 9 4 3 4 3 5 7 9 9 9 9 9 9 9 9 9 9 9 8 8 7 7 8 12 15 16 16 18 20 21 23 24 25 26 27 28 30 30 29 29 31 33 33 33 31 30 29 27 25 25 24 24 25 26 28 30 29 28 26 22 17 12 10
3 1 2 3 4 2 2 6 8 6 5 9 9 8 8 8 9 10 7 7 5 1 8 12 4 2 1 5 5 4 6 7 7 8 8 8 7 7 7 7 7 7 6 7 9 11 12 14 15 16 18 20 21 22 24 24 25 26 27 28 30 29 28 28 30 31 31 31 29 29 28 27 26 26 25 24 24 26 28 30 31 30 29 26 21 17
5 2 2 3 2 1 4 6 6 7 9 8 7 7 8 9 7 7 5 2 1 3 9 12 7 4 1 4 5 6 5 5 7 7 7 8 7 6 6 6 5 5 5 6 8 12 14 14 13 14 16 18 20 21 23 25 26 26 27 26 26 27 27 27 27 28 29 29 29 28 28 27 27 27 26 26 25 26 28 28 29 29 29 30 28 25
9 4 2 1 0 0 3 6 6 8 6 5 5 5 7 7 4 4 3 2 0 5 7 6 5 3 0 3 6 8 9 8 8 7 9 9 8 7 6 6 5 4 5 5 6 9 13 15 13 12 14 16 18 19 20 22 24 26 28 27 27 26 26 26 26 26 26 27 26 27 27 28 27 27 27 27 25 26 27 26 26 27 28 30 30 29
6 2 2 3 2 3 6 8 7 7 6 7 6 5 6 6 5 6 6 3 3 6 6 6 8 5 4 5 8 10 12 12 10 9 9 10 10 9 8 8 7 6 6 5 5 6 10 14 15 13 13 14 16 17 17 18 19 20 22 24 27 28 28 27 25 24 25 25 24 23 25 26 26 26 26 26 26 27 26 26 26 26 27 28 29 30
4 4 2 5 3 4 7 9 9 9 10 11 8 6 7 7 8 9 8 7 7 7 9 10 8 4 5 6 9 10 11 10 10 9 9 9 10 9 8 8 8 8 8 7 6 7 9 13 16 15 13 13 14 14 15 17 16 17 17 16 18 22 25 27 27 25 24 23 23 22 21 23 24 24 25 25 25 26 27 26 26 25 25 25 26 28
5 5 3 6 5 6 9 10 10 9 9 8 6 5 7 6 7 9 8 9 10 10 11 9 5 2 2 3 5 8 8 8 8 8 8 8 7 6 5 5 5 6 5 5 5 7 10 11 13 15 13 10 12 12 12 14 14 15 16 15 14 15 16 20 23 25 26 24 23 23 22 22 22 21 22 23 23 25 26 26 26 25 25 26 25 26
2 5 4 4 2 6 12 12 10 8 6 5 5 6 6 6 7 7 8 10 10 10 8 4 1 1 3 4 3 5 6 6 6 5 6 5 4 3 3 3 3 3 3 4 4 5 10 12 13 17 16 12 12 12 10 11 11 12 14 15 16 15 15 15 15 18 21 22 23 24 23 24 23 21 20 20 21 23 24 24 24 24 24 25 27 28
1 5 7 6 4 6 11 12 7 7 5 4 5 6 4 7 6 4 7 9 9 9 5 3 1 1 3 3 3 4 4 5 4 4 4 4 4 4 4 3 3 3 3 3 3 4 7 10 12 17 18 16 15 14 11 11 10 9 11 14 14 15 16 16 15 15 14 16 19 22 23 24 24 24 22 20 20 22 23 22 22 23 25 27 28 29
1 4 6 8 10 10 10 8 6 8 6 3 5 6 6 4 4 3 5 7 7 7 4 4 5 2 4 2 2 3 4 4 3 3 4 4 4 4 4 4 4 4 4 5 5 6 7 8 10 15 18 19 20 19 16 13 10 10 12 13 12 13 15 15 16 16 15 14 15 17 19 22 22 22 22 23 24 24 24 22 20 21 26 29 31 32
1 3 4 5 10 14 9 6 5 5 7 5 3 6 3 3 5 4 5 6 7 8 5 7 9 3 2 1 3 4 5 5 4 4 5 5 5 5 5 5 6 6 5 5 5 6 8 10 12 15 17 19 22 24 21 16 11 12 15 14 12 12 14 14 14 16 16 16 15 14 15 18 19 19 19 21 25 27 27 24 21 21 24 28 32 33
1 1 4 4 8 10 7 5 6 6 6 6 6 6 2 2 3 4 4 3 5 7 7 8 8 3 2 1 3 4 4 5 6 5 5 6 6 6 6 6 6 5 5 6 5 6 9 13 15 17 19 21 22 25 24 16 12 14 16 14 13 13 13 14 15 16 17 17 16 15 16 17 17 16 17 19 22 26 27 27 25 24 24 27 29 31
2 1 4 6 8 6 5 5 5 6 7 8 8 6 3 2 3 3 3 0 2 6 6 7 8 3 2 1 2 3 3 4 5 6 6 7 7 7 7 6 5 5 6 6 5 6 10 15 18 21 22 22 22 23 20 15 13 16 16 15 16 16 16 17 18 18 18 18 17 18 19 18 16 15 16 20 22 24 25 26 27 27 27 28 28 29
2 1 3 6 7 5 7 7 3 7 10 8 5 3 2 2 3 4 4 1 0 4 4 6 7 4 2 1 2 3 4 5 6 7 7 7 7 7 6 5 5 6 6 6 6 8 13 17 20 21 20 20 20 19 18 19 19 20 20 20 20 19 19 20 20 19 20 20 19 20 19 18 17 18 19 21 23 25 25 24 25 27 29 31 31 30
1 1 1 5 6 5 10 10 4 10 11 8 4 0 0 1 4 2 5 4 2 4 4 4 5 3 3 3 4 5 6 6 7 8 7 7 7 6 6 7 7 7 7 8 9 13 17 18 19 19 18 18 18 17 19 21 22 22 23 23 23 23 22 21 20 21 21 21 21 20 19 18 20 22 23 24 25 26 25 24 25 26 28 31 32 32
2 2 3 5 6 5 8 7 3 8 8 6 2 2 1 1 2 2 4 3 2 2 1 3 5 5 4 4 5 6 6 6 8 8 7 6 6 7 9 9 9 9 9 10 13 17 18 17 17 18 17 18 18 19 21 22 22 23 23 23 23 23 22 22 22 23 22 21 21 20 20 21 22 23 24 26 27 27 25 24 26 27 28 29 31 33
2 1 3 4 6 7 6 5 5 7 7 6 3 2 2 3 3 2 1 2 2 1 1 3 6 7 4 2 4 6 8 10 10 7 5 6 7 8 9 9 9 10 11 11 13 13 13 14 16 18 19 20 21 21 21 22 23 23 24 25 25 25 25 24 24 23 21 20 20 21 22 22 23 24 25 26 28 28 27 25 26 28 29 29 29 30
2 1 2 3 4 7 7 7 8 8 8 6 3 2 2 3 3 1 0 1 2 3 3 4 7 9 7 5 8 9 10 11 10 7 6 6 7 8 8 9 10 10 11 14 13 9 9 13 16 19 21 22 21 20 20 22 23 24 25 26 27 27 27 25 23 22 21 22 23 24 24 24 24 24 24 25 27 27 26 26 27 28 29 30 30 28
3 1 2 3 1 5 6 9 11 10 8 7 6 3 3 2 1 2 1 2 3 3 6 7 7 10 12 11 12 12 11 11 11 10 9 8 8 9 9 10 11 10 12 13 10 7 10 13 16 19 21 20 18 18 20 22 23 24 25 26 27 28 28 28 26 26 26 27 27 26 26 26 24 22 22 22 24 25 27 29 32 33 32 31 29 27
3 2 1 2 5 7 8 12 14 12 9 9 8 5 4 3 1 3 1 5 2 1 8 9 6 10 13 13 15 13 11 11 11 11 10 10 11 11 11 12 13 14 14 11 8 8 11 12 15 20 20 16 15 17 19 21 22 24 26 26 28 28 29 30 29 30 30 30 29 28 26 24 21 21 23 25 27 30 31 34 36 37 36 31 27 25
3 2 1 4 10 10 9 12 12 9 8 10 7 5 4 3 1 1 6 6 1 2 9 11 10 12 14 14 15 12 10 11 11 11 11 11 12 12 12 13 14 15 14 10 9 11 12 12 16 20 19 15 14 17 19 21 23 25 25 25 26 28 28 28 29 30 31 30 28 25 22 21 22 25 28 30 32 33 34 37 38 37 37 32 25 22
4 1 4 6 9 11 10 10 8 7 10 11 7 5 3 3 4 5 6 5 3 5 9 10 14 16 13 11 13 10 8 9 10 11 12 13 13 14 14 14 15 13 11 10 12 12 13 16 20 22 19 15 15 18 20 22 24 24 23 24 26 27 28 28 28 27 27 27 26 25 25 27 30 31 31 31 32 34 36 38 39 39 37 30 23 20
3 2 5 4 5 9 9 7 7 8 10 12 8 4 3 4 4 3 3 4 5 6 8 10 14 15 10 7 9 8 8 9 11 13 14 13 13 14 15 16 14 11 10 11 13 14 16 19 23 23 18 15 17 21 22 23 23 22 23 24 26 28 28 28 27 26 26 27 29 30 32 32 32 31 31 31 33 35 37 38 40 39 33 24 19 18
3 2 4 4 3 7 6 6 11 12 11 11 9 5 3 4 4 3 3 4 5 7 11 12 12 12 8 7 9 9 10 12 13 13 12 12 13 15 16 14 11 10 11 13 15 17 17 18 21 21 17 16 20 23 24 25 25 23 24 26 28 29 28 26 26 27 28 30 32 32 31 30 30 32 33 33 35 37 39 39 36 30 22 16 16 19
3 1 3 3 2 7 7 7 11 11 8 6 5 4 3 3 4 5 5 5 7 8 9 9 9 9 7 8 11 12 13 14 12 11 11 12 15 17 15 11 8 10 13 14 15 16 16 20 23 21 18 20 23 24 26 28 26 24 26 28 29 28 26 25 26 27 29 32 31 30 29 31 33 33 32 31 31 32 32 29 23 18 16 18 21 22
3 3 1 1 1 6 9 9 6 6 6 4 3 3 3 2 4 7 8 9 9 8 8 10 11 8 7 8 11 13 14 13 12 11 11 11 13 14 11 8 9 11 14 14 15 17 20 24 24 21 21 24 26 28 30 28 25 25 27 28 27 26 25 26 27 28 30 29 28 28 32 34 32 29 27 27 27 27 26 22 21 21 23 24 24 24
3 3 3 2 2 4 6 7 6 5 3 4 3 2 2 2 3 9 13 12 9 9 11 12 10 8 9 10 11 14 15 14 13 12 12 13 12 9 8 9 11 12 12 13 15 19 23 23 22 23 25 28 29 30 28 26 24 26 26 25 25 26 26 28 29 28 27 26 29 33 33 30 26 25 26 27 27 27 25 24 25 26 25 24 23 23
5 3 1 1 1 2 4 4 2 8 7 4 3 1 2 2 3 10 15 13 9 7 8 8 8 8 10 12 14 14 15 14 12 10 10 12 10 6 8 11 12 12 14 16 18 19 21 22 24 28 31 31 30 28 25 25 25 26 26 25 26 28 28 28 27 26 26 28 31 31 28 26 27 29 29 28 25 23 23 23 23 23 23 23 24 25
5 3 2 1 1 1 3 3 4 8 9 1 3 3 1 1 4 5 9 13 10 5 4 5 9 11 13 14 14 13 12 13 11 8 7 8 7 9 13 14 14 16 20 22 22 21 22 26 31 33 32 30 27 25 25 26 27 27 29 29 29 28 27 26 26 26 28 28 27 26 27 29 30 29 28 25 22 22 23 24 25 26 26 26 27 27
3 4 4 1 1 2 2 5 3 5 6 4 6 5 3 2 6 4 7 12 7 4 2 7 12 15 15 14 13 11 11 12 11 8 7 7 8 12 17 19 20 22 22 22 22 22 26 31 33 30 27 25 25 26 27 29 30 31 31 30 28 26 25 25 26 26 26 25 25 26 27 27 27 26 26 25 25 26 27 27 28 27 26 26 26 26
3 3 5 3 2 0 1 3 2 3 5 6 7 6 4 4 5 2 7 10 5 5 3 9 12 15 14 13 11 10 9 10 10 9 8 9 13 17 18 20 23 24 22 20 20 23 29 32 29 25 24 25 27 29 30 32 33 32 29 25 24 24 25 26 25 25 25 25 25 24 24 25 26 27 27 27 27 27 26 26 25 25 24 24 24 24
4 2 3 2 3 3 3 3 3 4 6 7 7 7 6 5 2 4 6 8 4 3 7 10 13 14 12 11 10 7 7 9 10 11 11 14 20 23 22 22 24 23 21 21 23 27 30 28 24 22 25 27 29 31 33 33 30 26 23 23 24 25 25 25 26 26 25 23 22 24 26 27 27 27 27 27 27 26 25 24 23 23 24 24 23 23
1 1 1 3 4 5 4 4 4 5 6 6 6 6 5 4 2 2 6 7 7 10 11 11 13 12 9 8 8 7 7 9 11 13 14 16 19 22 25 27 25 21 20 23 27 31 30 26 22 22 26 29 31 33 33 28 23 21 23 25 25 25 25 27 27 25 22 22 24 27 28 27 27 27 28 27 26 26 25 23 23 23 23 23 23 23
1 1 1 1 3 3 3 3 3 6 5 5 5 4 0 2 3 6 7 6 8 12 13 12 11 9 8 8 8 8 10 12 13 13 13 14 15 19 25 26 21 19 21 24 28 31 29 24 21 24 28 30 32 32 29 23 20 23 26 26 25 26 28 28 25 21 22 26 28 28 27 27 28 28 27 26 26 26 25 24 23 23 23 22 23 23
3 1 2 2 2 1 1 1 2 6 5 5 1 3 2 2 5 8 7 7 9 11 12 11 8 7 8 10 11 11 12 13 13 12 12 13 15 20 23 22 17 18 22 25 29 30 26 22 23 27 30 30 30 29 25 21 23 26 26 26 26 29 29 25 21 22 26 28 28 28 28 28 29 29 28 27 26 26 25 24 23 22 22 22 22 21
4 4 2 3 2 2 1 4 4 4 6 4 1 4 4 5 6 5 6 9 10 9 9 8 7 7 8 11 12 12 13 13 12 12 13 14 16 19 21 19 17 19 22 25 28 28 23 21 25 29 30 29 29 26 23 22 25 26 26 26 29 30 26 21 21 25 27 27 28 29 28 27 29 29 28 26 25 24 24 23 22 21 20 19 19 19
6 7 4 4 4 4 5 9 8 6 5 4 4 6 8 7 5 5 8 10 10 8 7 7 9 9 9 11 12 12 12 12 12 12 13 15 16 18 19 18 18 20 22 26 28 25 21 22 27 29 28 28 28 25 23 24 26 26 26 27 29 29 23 20 23 25 25 27 29 29 28 29 29 28 26 24 23 22 22 23 22 20 18 17 17 17
6 5 4 2 3 4 7 11 12 12 12 9 7 7 7 6 5 6 9 9 8 8 6 6 9 10 9 11 12 12 11 11 12 12 13 14 16 18 19 18 19 21 23 26 26 23 21 24 27 26 26 27 27 25 24 25 26 26 26 28 30 27 22 20 23 25 25 27 29 29 29 29 28 26 24 22 22 22 22 21 21 19 18 17 16 15
3 4 3 3 2 3 6 8 8 10 12 10 8 7 7 6 6 6 7 7 8 8 7 7 8 10 11 12 12 12 11 10 12 13 14 14 15 16 16 17 20 23 25 26 24 22 22 24 26 24 23 25 26 25 25 26 26 27 27 28 28 24 20 21 24 25 26 28 29 29 28 26 25 24 23 22 22 22 21 20 20 19 18 17 16 15
1 3 2 5 5 5 9 10 9 9 10 9 9 9 7 7 7 6 6 8 9 9 9 8 8 9 11 12 11 10 11 11 12 14 15 14 14 14 15 18 22 25 27 26 23 21 22 24 25 24 23 24 26 25 25 25 27 28 27 26 24 21 20 22 24 25 26 28 27 27 26 24 23 23 23 23 22 21 20 20 20 20 19 18 18 18
4 3 3 4 4 6 11 13 10 8 8 9 9 9 7 6 6 6 7 8 9 9 9 10 11 11 11 11 10 11 12 13 14 16 16 13 12 13 16 21 24 26 27 25 22 21 24 25 25 24 24 25 26 25 23 24 28 28 25 22 21 20 21 23 24 25 26 26 26 26 25 23 23 23 22 22 22 22 22 21 19 19 20 20 19 18
4 4 3 1 3 6 9 9 6 6 8 8 7 7 7 6 5 7 9 8 8 7 8 11 13 13 10 9 11 12 12 13 17 19 16 12 12 15 20 24 26 26 26 24 22 23 26 27 26 25 24 27 27 23 22 26 29 26 22 21 21 21 22 24 24 24 24 25 25 26 24 22 22 22 22 22 22 23 23 21 18 17 18 20 19 18
6 7 6 5 6 10 11 10 6 4 8 10 8 7 6 4 5 8 8 7 7 8 10 11 12 11 9 10 14 15 13 16 21 20 14 11 16 21 25 26 25 24 25 23 22 24 27 28 26 25 26 28 25 21 23 29 27 22 21 22 21 20 22 24 23 23 23 24 24 24 23 21 21 22 22 22 22 21 22 23 22 19 17 16 17 18
Wind_Direction
90 34 342 290 268 275 300 309 294 289 307 313 315 317 305 304 300 288 284 293 324 331 275 245 248 267 239 158 112 88 82 86 88 81 76 69 63 58 54 51 46 46 40 33 30 27 25 24 24 24 23 23 24 24 24 25 25 24 24 23 21 19 20 21 20 21 20 16 11 3 352 319 233 218 218 219 219 218 217 213 210 209 206 205 205 203
52 37 286 253 248 282 308 313 338 352 346 340 327 318 317 295 286 291 290 304 355 0 285 264 263 271 235 142 111 89 82 75 83 85 77 70 66 60 57 53 47 44 35 32 29 24 22 21 22 23 23 23 23 22 22 23 23 23 25 25 22 19 20 20 18 18 19 18 15 9 4 1 322 229 220 221 222 222 221 218 214 213 210 208 209 206
21 315 261 288 326 346 338 341 15 15 0 349 339 334 325 301 289 297 302 320 346 336 296 286 272 275 124 106 84 76 82 72 73 81 80 76 73 65 60 55 46 40 31 28 23 20 19 18 20 23 23 23 23 22 22 22 21 22 23 23 22 21 20 19 17 17 16 17 21 21 22 23 23 20 264 227 231 228 228 225 219 218 215 213 212 209
8 283 275 356 12 20 355 351 23 24 19 4 344 337 309 308 325 310 311 321 314 282 274 280 279 275 103 96 67 63 81 82 77 80 79 76 76 70 65 58 46 41 32 26 22 16 16 16 19 21 21 22 23 23 22 21 21 21 20 20 21 21 21 21 19 17 15 16 20 23 26 30 32 32 37 55 48 357 284 246 231 226 223 219 217 213
257 267 301 39 22 20 9 5 26 23 4 345 318 299 291 303 304 285 300 320 313 283 244 259 288 272 168 148 98 83 86 85 78 77 72 63 65 60 53 48 39 40 35 27 22 15 14 15 17 20 21 21 23 23 22 20 20 20 19 19 19 20 20 21 21 20 17 18 19 20 21 23 22 20 21 25 21 12 5 341 273 246 237 228 224 219
277 273 25 42 10 20 37 24 20 21 357 331 289 241 262 289 289 288 306 328 327 303 255 157 321 291 185 139 125 120 96 87 75 72 70 58 55 49 43 40 31 30 31 28 26 20 16 15 16 20 21 21 23 22 21 21 21 20 18 18 19 19 19 19 21 22 22 22 23 23 24 21 16 12 10 10 7 3 0 360 352 292 259 248 238 231
303 329 51 44 10 25 42 26 5 22 8 326 278 221 247 281 291 296 306 318 305 286 288 346 304 282 256 130 143 133 101 89 77 70 70 60 53 48 41 36 28 25 21 20 21 21 19 15 14 17 19 21 22 21 20 20 21 20 19 19 19 19 19 19 19 22 24 25 25 26 27 25 17 9 3 2 5 4 1 2 7 6 328 282 259 248
311 357 31 30 23 37 37 5 330 6 14 300 280 275 286 295 293 290 293 285 258 273 291 283 224 255 283 110 120 113 98 85 77 70 67 62 53 47 39 31 25 20 16 15 11 15 18 14 12 14 16 19 20 19 18 17 18 18 18 19 20 19 19 19 19 21 24 25 25 25 24 23 18 10 3 2 4 3 2 1 3 7 8 350 304 272
333 26 24 17 26 45 38 299 295 340 357 275 278 290 292 291 287 286 283 271 266 282 289 275 196 223 292 34 64 88 91 81 76 72 66 63 56 49 42 31 23 13 8 10 4 4 9 9 10 13 14 16 18 18 17 15 14 14 15 16 19 20 19 18 18 20 22 23 24 24 23 20 16 11 6 5 5 2 1 0 359 0 0 359 354 333
327 82 158 78 45 14 278 277 296 321 292 274 290 303 299 296 286 278 268 270 280 230 265 274 252 220 333 41 19 30 75 82 79 74 67 64 56 49 42 31 23 14 6 2 358 356 359 5 9 12 15 16 16 14 12 12 10 10 12 12 15 17 17 16 17 18 20 21 21 21 21 18 15 12 9 7 5 3 2 1 358 358 357 356 354 351
312 272 176 90 69 227 256 279 293 285 281 302 325 324 311 304 291 274 259 252 297 234 258 273 272 253 303 44 25 12 32 78 86 76 69 63 52 43 35 21 12 9 5 356 354 352 353 359 7 14 16 15 14 10 7 7 6 6 6 7 11 14 14 12 13 16 18 19 19 18 18 16 13 12 10 7 5 3 2 0 356 355 355 355 354 351
340 358 4 350 340 81 297 301 299 279 292 344 336 339 328 309 309 296 304 58 170 267 272 281 309 311 229 44 37 33 32 48 66 66 62 54 42 35 26 11 356 351 355 352 350 351 353 355 358 8 12 12 12 10 7 6 3 2 1 360 1 6 10 9 8 10 13 17 18 16 15 14 12 11 9 7 5 3 1 357 352 352 354 353 352 351
337 324 331 334 331 14 344 328 324 314 340 351 329 351 348 321 334 324 323 343 259 268 297 329 349 9 104 69 40 46 44 43 49 52 53 46 35 28 20 9 356 345 346 345 345 347 353 357 355 355 0 6 8 7 5 3 2 1 359 357 356 356 359 1 3 4 5 10 13 14 13 12 11 10 8 6 3 1 359 356 353 353 353 351 349 348
325 279 349 22 349 0 12 352 340 336 340 340 340 0 348 332 334 322 315 311 287 283 301 315 331 356 96 68 41 48 48 45 48 46 43 40 32 23 17 11 2 357 355 350 348 345 345 354 355 349 345 352 354 352 351 352 355 357 356 357 354 352 352 353 355 357 358 1 3 5 6 8 9 7 5 5 3 0 358 356 355 354 352 349 346 346
354 309 355 34 339 333 10 2 337 327 330 334 345 5 354 343 325 312 309 311 309 308 311 324 341 354 89 87 57 57 52 43 44 41 35 31 27 18 11 6 357 355 352 345 344 338 333 338 344 341 331 323 327 329 333 337 341 345 349 350 348 346 348 348 349 350 351 353 353 355 356 357 2 2 1 3 1 359 358 356 355 354 353 350 345 344
356 273 298 13 330 344 0 350 335 338 339 329 351 18 1 331 315 309 315 320 318 317 329 9 54 90 115 134 102 67 60 49 36 31 33 20 5 353 338 338 335 328 325 336 340 334 337 339 339 337 324 302 302 309 312 319 324 329 334 338 336 335 337 337 339 342 344 345 345 348 349 349 351 352 355 359 357 357 357 356 355 353 351 349 344 340
348 277 308 347 21 33 3 341 356 25 359 322 0 9 308 302 330 330 318 324 324 320 338 52 94 159 145 151 108 72 60 54 27 7 8 346 341 337 322 322 322 313 300 305 308 308 328 335 335 336 329 312 304 299 293 299 305 306 317 324 321 322 328 329 329 330 331 335 338 342 345 346 345 344 346 350 351 353 354 352 350 347 346 346 343 339
343 299 320 5 4 358 352 351 40 56 36 18 356 328 280 296 7 9 317 321 323 313 323 357 340 281 202 208 81 64 37 30 2 340 328 314 325 322 308 296 287 287 275 266 272 281 298 315 325 334 336 329 320 308 290 283 290 296 305 313 309 311 321 323 325 326 321 319 323 330 338 340 339 337 337 339 340 342 346 346 340 336 338 342 341 337
90 313 305 42 7 337 339 9 32 39 49 65 0 330 323 336 358 355 322 320 320 311 314 331 324 303 194 273 349 2 1 351 329 325 319 311 312 302 291 281 276 281 278 273 276 286 300 316 322 326 331 331 330 322 303 282 283 300 304 308 310 311 320 323 325 326 321 315 313 313 323 330 330 327 326 329 330 331 334 336 332 329 332 337 338 337
77 36 286 356 3 335 333 2 357 350 14 34 11 0 11 327 339 340 314 312 318 312 312 312 308 297 160 245 299 328 336 324 315 315 308 300 296 288 284 282 285 294 299 299 302 310 321 326 327 326 325 324 326 326 318 298 290 310 316 319 319 318 325 329 328 326 322 316 311 308 312 317 317 315 316 320 322 322 324 325 323 322 328 333 335 336
12 87 265 311 340 343 343 352 5 4 4 8 359 355 358 343 348 329 305 175 324 312 309 307 304 290 162 201 255 275 284 285 287 287 285 284 281 280 282 283 292 305 314 315 312 320 330 332 331 326 321 323 324 328 333 331 322 329 334 333 327 324 326 328 326 323 319 315 312 310 312 312 308 305 308 312 313 313 316 317 314 313 318 326 332 333
6 20 247 305 329 344 327 321 18 44 20 358 329 322 339 355 15 343 325 11 321 292 283 296 303 285 191 203 237 245 257 259 264 270 275 275 274 279 281 285 301 316 324 325 324 330 331 330 329 325 324 332 335 336 342 342 334 332 331 328 324 321 317 316 313 312 311 310 308 307 309 309 307 305 305 304 305 306 307 306 304 304 307 315 325 329
108 61 307 301 303 294 291 296 21 45 16 336 301 353 10 23 70 23 309 314 294 281 284 296 296 262 228 237 239 242 249 252 260 267 273 281 288 302 310 311 323 331 332 335 334 331 330 331 335 337 338 340 340 338 334 329 325 321 319 318 317 313 309 307 305 303 302 302 301 302 305 307 307 306 303 300 299 299 298 296 295 296 298 305 316 323
64 56 353 303 287 280 278 284 22 40 11 332 318 66 80 67 90 200 246 299 304 277 312 310 287 267 242 230 239 249 262 283 293 284 285 305 314 323 327 327 334 336 334 335 331 329 333 340 345 344 340 336 333 329 327 325 322 319 317 318 317 311 308 308 308 306 301 298 298 299 302 305 308 306 302 300 299 296 291 288 287 289 292 299 309 316
45 22 353 330 317 327 328 325 340 355 353 337 333 43 65 61 31 294 256 15 329 267 343 301 281 272 250 240 276 289 305 317 316 302 302 317 319 324 328 329 333 332 330 329 327 329 337 344 343 338 335 332 329 329 332 336 336 334 332 331 327 321 315 311 312 312 309 306 307 307 305 304 305 305 303 302 301 296 288 282 282 285 290 297 306 310
109 270 5 37 340 326 326 318 317 324 329 323 325 8 15 40 35 352 352 357 272 284 314 277 263 277 290 312 311 307 314 319 321 322 318 316 318 324 328 328 328 328 326 325 325 331 338 337 337 335 332 329 331 338 344 345 344 342 340 338 336 331 325 320 319 318 314 312 311 309 306 303 302 304 307 309 307 299 288 284 284 285 288 295 301 303
102 18 53 83 241 271 282 285 291 298 303 304 305 307 293 295 43 77 87 241 239 292 295 259 253 288 303 314 314 312 317 322 326 328 324 322 324 324 325 326 325 325 323 321 323 331 334 333 333 331 328 328 336 345 346 343 341 339 337 335 333 330 326 323 319 315 310 306 303 301 300 299 299 301 303 308 311 305 296 293 293 290 289 293 295 295
74 358 46 14 288 263 270 283 288 291 296 303 300 275 260 280 20 73 236 248 223 322 287 279 290 300 301 308 311 314 322 326 327 329 326 325 324 324 325 325 325 323 319 319 327 334 332 331 330 328 325 328 339 343 341 339 336 333 330 327 326 324 321 318 314 310 306 301 296 294 292 290 291 295 299 304 308 307 303 300 296 291 290 291 288 283
101 256 247 330 307 289 284 284 285 292 302 304 287 246 250 283 308 221 241 246 174 210 270 293 307 297 297 305 306 311 326 326 324 324 322 322 322 321 323 323 321 318 317 325 335 332 330 328 326 324 322 325 335 337 335 332 329 326 324 323 324 324 322 320 317 312 307 301 296 294 295 297 301 304 307 307 307 306 304 301 297 290 287 286 278 270
113 277 319 327 302 295 293 284 288 310 311 303 278 237 257 277 245 233 239 254 260 250 268 294 297 290 290 293 297 312 329 322 319 320 319 321 321 321 322 318 315 316 323 333 333 329 329 326 322 320 317 319 328 329 327 324 322 321 321 322 324 324 323 322 321 319 316 312 309 310 311 313 314 312 310 308 305 304 301 298 294 288 282 276 266 263
79 325 321 339 310 297 289 282 300 312 303 298 284 250 281 300 279 257 253 275 281 275 283 293 291 290 290 288 298 315 324 318 318 318 317 319 319 319 317 314 315 324 331 332 331 331 329 323 320 317 313 315 323 323 320 319 317 316 317 318 319 319 318 317 316 317 317 315 314 313 312 312 312 310 308 306 303 300 297 294 290 283 274 262 257 268
56 337 321 12 345 294 290 315 316 311 304 299 289 271 283 302 300 276 254 272 288 294 295 294 289 291 300 313 314 318 321 319 316 313 312 316 318 315 311 310 318 328 330 332 333 332 328 323 319 315 313 318 321 320 319 317 314 312 313 315 316 314 312 311 312 313 314 314 313 311 310 311 311 309 307 304 302 298 294 290 284 274 263 260 275 288
92 55 326 9 340 288 302 326 315 315 328 311 275 247 248 277 295 292 280 281 287 291 293 287 281 286 307 323 321 320 320 317 312 311 314 318 317 310 307 313 327 329 329 333 333 329 324 319 317 315 318 322 321 319 318 315 310 310 313 315 314 312 310 310 311 312 312 311 309 308 311 312 309 307 306 307 308 306 301 291 279 271 274 283 293 299
109 117 225 231 245 282 305 323 321 335 345 299 234 163 163 255 302 300 293 285 276 267 262 268 279 299 319 318 313 313 313 311 309 309 312 315 310 305 310 326 333 329 330 331 327 322 319 318 318 321 323 322 320 318 317 315 312 312 315 316 315 314 315 314 313 312 310 308 308 310 310 308 305 305 308 310 313 313 310 303 295 293 292 291 293 296
151 165 197 201 213 264 317 351 354 338 304 224 188 136 165 202 294 303 295 288 277 268 267 273 286 301 306 305 308 310 310 309 308 308 312 311 304 307 326 332 328 327 327 324 321 320 322 324 326 324 321 319 319 319 320 320 319 318 318 320 320 318 316 313 312 311 311 311 312 310 307 306 307 309 311 310 309 308 308 306 301 296 292 291 293 295
163 177 155 134 230 290 353 28 324 296 285 199 171 295 235 200 323 321 308 302 297 282 272 275 280 286 297 306 311 311 309 308 305 304 308 305 307 331 338 326 324 325 322 320 320 321 325 327 325 321 318 319 321 323 325 324 323 322 320 319 318 315 313 312 312 313 314 312 310 308 308 311 313 310 307 306 307 309 311 311 308 302 298 298 298 297
152 132 74 34 183 179 306 266 243 292 304 262 214 257 173 208 302 305 297 298 294 262 244 288 298 301 308 310 308 310 310 309 304 301 307 309 320 337 327 319 321 322 319 320 320 322 325 325 322 320 320 322 326 328 327 324 324 322 318 316 314 312 313 314 314 313 313 310 308 309 312 313 312 309 307 308 310 311 311 309 306 304 302 300 298 298
143 116 112 146 203 126 274 288 308 314 303 257 238 233 160 231 274 256 282 296 281 206 241 321 315 312 313 311 311 319 319 311 303 306 325 330 330 328 321 318 321 319 318 320 323 326 327 325 322 322 323 326 327 326 325 323 321 318 313 312 313 315 316 316 314 313 312 309 309 311 313 315 315 314 313 312 311 308 305 303 301 300 299 298 295 294
50 71 113 137 259 149 224 268 254 259 262 241 237 234 205 244 278 320 310 294 240 186 297 325 315 310 312 312 319 330 324 309 302 311 334 337 329 326 323 320 320 319 319 324 328 328 326 323 321 322 325 326 324 322 322 320 317 313 311 313 318 319 316 314 313 312 311 310 311 315 318 319 318 316 313 310 307 305 303 302 300 299 299 297 295 294
46 38 91 143 234 231 225 249 236 236 249 239 231 238 247 262 324 25 322 283 254 271 316 322 312 308 312 315 319 323 310 299 302 312 326 328 323 323 322 318 318 320 324 328 329 327 324 320 318 321 324 323 320 320 320 317 314 313 315 319 320 317 313 312 312 311 311 314 320 323 322 320 317 315 313 310 308 307 305 303 302 301 301 299 297 297
18 284 179 177 215 218 221 252 266 255 246 228 219 238 264 293 328 303 275 282 306 315 317 318 311 307 310 311 311 306 295 294 299 307 317 321 319 319 318 315 315 319 326 327 327 326 322 317 316 321 322 321 320 320 318 316 316 320 322 321 317 312 313 312 310 311 317 324 327 325 323 321 319 317 314 310 309 307 305 304 303 301 301 300 299 297
305 296 274 194 210 207 203 225 281 286 251 196 201 236 254 42 299 267 270 292 308 309 310 310 304 302 304 301 297 294 294 297 300 304 310 315 316 316 314 312 314 320 324 325 326 325 320 315 318 322 320 320 321 320 318 318 323 324 322 317 313 312 313 311 311 319 326 327 325 323 322 320 318 317 314 311 311 308 306 305 304 302 301 300 297 296
178 199 283 265 205 189 258 234 300 292 244 184 238 310 94 131 266 277 291 301 299 301 305 302 294 293 298 296 295 296 298 300 302 304 307 310 314 314 311 309 313 318 321 325 326 322 317 317 321 321 319 320 321 318 317 321 324 324 319 314 313 313 312 311 318 326 326 323 320 319 318 317 317 316 314 312 311 308 306 305 305 305 303 299 295 294
189 176 225 247 189 128 233 223 221 236 218 192 298 289 227 220 252 279 298 301 301 301 299 295 292 293 296 298 299 300 299 300 302 305 309 311 314 313 309 308 313 316 320 324 322 318 316 318 320 318 317 319 320 317 317 322 323 320 315 313 315 314 310 313 323 326 324 321 318 315 313 314 315 315 313 312 311 309 308 308 308 306 304 301 298 294
211 185 186 223 211 190 220 236 243 256 256 248 247 249 250 254 261 280 290 294 296 295 293 296 300 302 302 301 301 300 298 299 301 305 309 311 312 311 307 307 312 316 320 322 318 315 315 318 318 317 315 317 318 316 316 322 322 316 312 314 316 312 309 317 325 325 323 320 316 313 312 312 313 314 312 311 311 310 310 311 309 307 306 305 302 297
221 178 153 199 239 262 262 255 258 270 275 268 248 241 253 260 268 284 287 284 285 289 293 296 298 304 308 303 298 295 294 298 303 305 308 310 309 307 306 307 312 316 319 320 316 313 315 318 318 315 313 315 316 315 317 321 320 314 311 315 316 311 310 320 325 324 322 320 316 314 312 311 312 313 311 310 312 312 310 309 307 306 306 304 301 302
243 157 158 203 231 289 275 248 235 247 262 271 273 266 260 259 267 275 273 276 287 290 289 291 298 306 308 301 295 294 296 302 306 306 309 310 307 304 306 309 314 318 319 318 315 313 317 320 317 313 311 313 315 315 316 318 318 314 313 315 315 314 318 325 326 323 321 319 317 316 314 311 311 311 310 310 312 312 310 308 306 305 303 302 302 302
215 148 198 223 211 227 258 261 253 245 249 261 273 276 277 275 273 268 267 281 291 289 284 288 296 304 305 302 301 302 303 305 307 307 309 308 303 303 308 312 315 318 318 316 313 315 320 320 316 312 310 312 313 313 313 316 317 315 314 315 317 322 327 328 325 322 320 319 318 317 314 311 310 310 309 310 311 311 310 308 306 303 300 301 302 299
132 153 191 214 227 253 270 278 284 280 262 245 242 251 259 261 264 275 283 288 293 294 295 296 298 300 303 306 311 312 308 307 309 309 307 304 302 307 313 315 317 318 316 314 313 316 321 321 316 311 309 312 312 310 312 318 318 315 315 317 320 326 330 329 325 322 320 319 318 317 316 313 311 310 309 309 310 311 310 307 304 302 302 303 304 300
144 198 191 175 266 267 265 264 268 285 280 261 242 247 250 246 262 285 294 298 302 304 305 305 306 306 307 310 313 311 306 307 309 307 303 302 307 313 316 317 317 316 313 312 313 317 321 320 315 311 310 313 311 308 314 320 317 314 316 319 320 327 333 331 327 322 320 319 318 317 316 314 312 312 311 310 309 310 310 309 306 303 302 305 307 305
191 203 181 184 228 246 256 250 216 222 267 275 277 274 265 264 284 292 296 300 302 305 310 310 309 311 314 313 311 309 308 308 308 307 306 308 313 317 318 318 315 313 312 312 314 318 320 318 315 312 312 312 309 309 318 320 315 314 321 321 319 326 333 332 328 323 319 318 317 317 316 315 314 314 312 310 308 308 310 311 311 309 307 307 309 310
Height
814 818 822 823 824 823 823 822 820 821 821 820 821 820 822 824 819 810 804 797 794 796 793 791 792 788 791 803 810 812 813 816 821 824 827 830 832 834 836 836 837 837 837 837 836 835 834 833 831 828 826 823 820 818 816 814 812 810 808 806 803 802 800 797 794 792 791 789 787 786 786 785 782 781 782 784 785 786 788 790 792 792 794 796 797 798
816 820 823 823 824 823 821 820 820 820 820 820 821 821 823 826 819 807 804 798 794 798 794 791 792 786 791 806 813 814 817 821 824 828 832 834 837 838 839 840 840 840 839 838 838 837 836 835 833 831 828 826 823 821 820 817 816 814 812 810 808 807 804 802 800 799 797 795 794 792 789 786 784 783 783 784 785 786 787 789 791 792 792 793 793 795
820 819 822 823 822 821 820 820 821 822 822 822 822 824 823 822 817 806 801 798 798 801 796 794 792 788 798 813 817 819 823 827 829 832 835 838 840 841 842 843 842 842 841 840 840 839 839 837 835 833 831 829 828 826 823 821 819 816 814 813 812 810 808 806 805 803 801 799 797 795 791 787 786 785 785 786 787 788 788 788 789 790 792 792 792 793
825 820 822 824 820 820 822 822 824 825 825 825 824 826 822 819 819 811 803 800 803 804 798 795 793 797 810 818 822 827 828 831 834 835 838 840 841 844 844 844 844 843 843 842 842 842 841 839 837 836 834 832 831 828 826 824 822 820 818 817 815 813 811 809 807 805 803 801 798 795 792 789 788 787 785 785 786 788 789 789 790 790 791 791 792 792
825 821 822 823 822 824 825 826 828 826 827 829 825 823 820 817 819 817 812 808 805 799 794 796 794 795 807 816 825 833 831 834 838 838 841 843 844 846 845 845 845 845 845 845 845 844 843 842 840 839 837 835 833 831 829 828 826 824 822 820 818 816 814 812 810 807 804 801 797 792 789 788 788 788 787 785 786 788 789 790 790 791 791 791 791 792
823 823 824 824 824 826 826 827 831 830 831 831 823 819 820 818 819 819 817 818 814 799 788 794 798 793 799 817 831 835 835 839 842 843 846 847 848 848 848 848 848 847 847 847 847 847 845 844 843 841 839 837 836 834 833 832 830 828 826 824 821 819 817 814 812 809 806 803 799 796 794 794 795 796 796 795 793 792 792 791 791 790 791 792 792 792
824 825 826 826 827 827 827 829 831 832 834 831 821 819 821 820 821 819 818 823 821 805 789 793 807 803 796 812 830 835 838 845 846 848 850 851 852 852 852 852 851 850 850 849 849 848 847 846 844 843 841 840 838 837 836 834 832 831 829 826 824 822 820 817 815 812 809 806 804 803 803 804 805 804 803 801 798 796 795 793 791 790 790 791 792 792
826 827 828 828 828 828 830 832 831 832 837 830 818 819 822 820 822 820 821 825 819 810 800 792 804 806 797 812 833 837 843 849 851 853 854 854 855 855 855 855 854 853 852 851 850 849 848 847 846 845 843 842 841 839 838 836 834 833 831 829 827 825 823 820 818 816 813 811 810 809 808 808 808 806 804 801 799 798 796 794 792 791 790 790 791 791
828 831 832 830 831 831 833 834 832 834 836 825 816 821 824 822 824 822 822 823 816 819 813 793 795 803 807 829 840 838 847 855 857 858 858 858 859 858 858 857 856 855 854 853 851 850 849 848 847 846 845 843 842 840 839 837 836 834 833 831 829 827 825 823 821 819 817 815 814 812 811 810 809 807 806 803 802 800 798 796 794 792 790 789 789 789
832 834 833 832 832 833 835 834 832 834 832 824 821 824 824 822 823 819 819 820 816 821 813 791 792 800 817 849 853 843 852 860 861 862 861 862 861 861 860 859 858 857 855 854 852 851 850 849 848 847 845 844 842 841 840 838 837 835 833 831 830 828 826 825 823 821 819 818 816 815 813 812 811 809 807 806 804 803 800 798 795 794 792 790 789 789
836 836 834 835 836 837 837 834 832 831 829 825 824 825 824 821 817 813 814 816 818 820 805 791 794 794 816 858 868 860 861 862 863 864 863 864 863 862 862 860 860 858 857 855 853 852 851 849 848 847 845 843 842 841 839 838 836 835 833 832 830 829 827 826 824 823 821 819 818 817 815 814 813 811 809 807 805 803 801 799 799 798 795 793 791 790
835 835 835 838 841 839 837 836 832 829 829 829 828 831 832 824 815 811 807 810 819 815 796 791 794 794 823 864 872 868 867 863 864 865 865 866 864 864 863 861 861 859 858 856 854 853 851 849 848 846 845 843 841 840 839 838 836 834 833 832 830 829 827 826 825 823 822 821 819 818 817 815 814 812 810 809 807 805 804 803 802 799 796 794 793 791
836 835 838 840 841 839 839 838 832 826 826 829 830 836 841 834 827 823 817 816 818 805 793 794 795 807 848 878 874 871 872 868 868 868 867 867 865 865 864 863 862 860 858 856 854 853 851 850 848 847 845 843 842 840 839 838 836 835 834 832 830 829 827 826 825 824 822 821 820 819 818 816 815 814 812 810 809 807 806 805 802 799 797 796 795 794
846 839 840 840 839 840 842 843 841 835 831 833 836 840 845 846 848 845 833 825 819 806 796 790 794 825 868 881 876 876 875 872 872 870 869 869 868 867 866 866 865 862 861 859 856 855 853 851 849 847 846 844 842 840 839 838 836 835 834 833 832 830 829 827 825 823 822 821 820 819 818 817 816 814 813 812 810 809 807 806 804 802 801 800 799 797
861 850 843 844 845 843 843 848 849 844 840 841 840 842 850 855 860 858 844 835 833 821 804 801 822 858 882 881 878 878 875 874 874 871 872 871 870 870 868 867 866 864 862 860 858 856 853 851 849 847 845 842 841 839 838 837 836 834 833 832 831 830 829 828 826 824 822 820 820 819 818 817 816 815 813 812 811 810 809 807 806 804 803 802 800 798
866 856 846 848 852 847 848 850 847 847 851 848 844 851 863 862 858 858 851 845 845 835 825 841 869 880 880 879 877 875 874 875 875 874 874 872 871 870 868 866 865 863 861 859 858 855 853 851 848 846 843 841 839 838 837 836 834 833 832 831 830 829 828 827 826 824 822 820 819 818 817 816 815 814 813 812 811 810 809 807 807 805 804 802 800 798
871 859 848 849 851 850 853 852 848 856 862 856 856 863 867 858 852 862 865 851 848 849 843 854 874 879 878 879 877 875 874 874 875 875 874 872 871 869 867 865 863 861 859 857 856 854 851 849 846 844 842 840 838 837 835 835 833 832 831 830 829 827 826 826 825 824 822 820 819 817 816 815 814 813 812 811 809 808 808 807 806 805 804 802 800 798
879 867 852 850 852 851 853 853 851 857 862 863 869 867 860 855 851 864 875 863 859 863 851 845 857 869 874 873 872 875 875 874 875 874 873 871 869 868 866 864 861 859 857 855 853 851 848 846 844 842 840 839 838 836 834 833 832 831 830 829 828 826 825 824 823 822 821 819 818 816 815 814 813 812 811 809 808 806 806 805 805 804 802 801 799 797
881 874 858 852 858 857 852 854 857 859 860 865 870 865 864 871 871 872 879 878 876 873 862 856 855 861 872 874 873 876 876 876 875 872 872 870 867 866 864 861 859 857 855 853 851 849 846 844 842 840 839 838 837 835 834 832 831 831 830 828 827 826 824 823 822 821 820 818 817 815 814 813 812 811 810 809 807 806 804 803 802 802 800 799 797 795
879 880 870 857 859 864 857 857 868 870 864 862 866 867 870 875 879 881 880 881 885 884 878 874 862 862 878 880 875 878 877 875 873 870 870 868 865 864 861 859 858 855 854 851 849 847 845 843 842 840 839 837 836 834 833 832 831 831 830 828 827 825 823 822 821 819 818 817 816 814 812 811 810 809 808 807 806 805 803 802 800 799 798 797 795 794
880 884 883 867 862 871 868 865 874 878 874 871 874 879 881 878 877 882 879 876 885 893 892 887 873 867 877 879 876 878 875 872 872 869 867 866 864 862 859 858 856 854 853 850 848 847 844 843 841 839 838 836 834 834 832 832 831 830 829 827 826 824 822 820 819 818 817 815 814 813 811 809 808 807 806 805 804 802 801 801 799 798 796 794 793 792
888 890 891 882 876 878 874 868 872 877 877 878 880 881 886 885 884 892 892 881 884 891 890 889 882 871 874 878 876 874 873 871 870 868 866 864 862 860 858 857 855 853 851 849 847 845 843 841 840 838 837 835 834 834 832 831 830 828 827 825 824 822 820 818 817 816 814 813 812 810 809 808 806 805 804 802 801 800 799 798 797 796 794 792 791 790
891 893 894 891 885 881 875 869 871 875 875 877 880 882 885 886 889 899 902 892 889 888 883 888 889 876 873 877 874 873 873 870 869 867 865 862 860 858 856 854 852 851 849 847 845 843 841 840 839 838 837 836 834 833 832 830 829 827 825 823 821 819 818 816 815 813 812 810 809 808 806 805 804 803 801 800 799 797 796 795 794 793 792 790 789 787
889 893 898 896 887 877 871 868 868 873 878 879 880 885 889 890 891 895 895 893 895 893 892 899 895 876 871 874 873 872 871 868 867 865 862 861 859 856 855 852 851 849 847 846 844 842 841 839 838 837 836 835 833 832 830 828 826 825 823 821 819 818 816 815 813 812 810 808 806 805 803 802 801 800 799 797 796 794 793 792 791 790 789 788 787 785
892 895 900 906 904 893 882 879 878 878 882 883 883 889 892 892 894 894 891 894 896 893 896 906 897 875 869 872 871 870 868 866 865 863 862 861 859 856 854 852 851 849 847 846 844 842 840 839 837 836 834 833 831 829 828 827 825 824 822 820 818 816 815 813 811 810 808 806 805 802 801 799 798 797 796 794 793 792 790 789 788 787 786 785 784 783
896 897 900 912 922 921 912 906 900 893 890 886 885 891 894 893 894 893 894 899 899 892 894 901 894 876 868 870 870 868 867 865 863 863 862 861 859 857 855 853 851 850 847 845 843 841 840 838 837 835 833 831 829 828 827 825 824 822 821 819 817 815 813 811 809 808 806 804 802 800 798 796 795 793 792 791 790 789 788 786 785 784 783 782 780 779
896 899 903 912 919 922 919 911 901 896 896 892 888 892 894 895 894 893 896 899 897 897 896 892 887 881 874 872 870 867 867 866 864 863 862 860 859 857 855 853 852 849 847 845 842 841 839 837 836 834 832 830 828 827 825 824 823 821 819 817 815 814 812 810 808 806 804 802 800 798 796 794 792 791 789 788 787 786 786 784 783 781 779 778 776 775
900 904 908 912 912 911 909 904 897 895 895 891 889 893 894 894 894 895 897 894 894 902 897 882 882 887 881 874 870 868 867 866 865 863 862 860 858 856 855 853 851 848 846 843 842 841 839 837 835 833 831 829 827 825 824 822 821 819 818 816 814 812 810 808 806 803 801 799 797 795 793 791 790 788 786 784 784 783 781 780 779 777 775 774 772 770
903 905 907 910 908 906 904 901 895 893 891 888 889 892 894 894 895 895 895 891 894 901 895 884 886 888 880 874 871 868 868 867 865 863 861 859 857 856 854 852 850 847 844 842 842 840 838 836 834 831 830 828 826 824 822 821 819 817 816 814 812 810 808 806 804 801 799 797 794 792 790 789 787 785 783 782 780 778 777 775 774 773 771 769 767 766
902 903 905 909 908 905 901 898 894 892 891 888 888 891 893 894 895 895 893 891 893 896 893 889 889 884 878 874 869 867 868 867 865 862 860 859 857 855 853 851 849 846 844 843 841 839 837 835 832 830 828 826 824 823 821 820 818 816 814 812 810 808 806 804 802 800 798 795 793 791 789 787 785 783 781 779 777 774 773 771 769 767 765 764 763 762
903 905 906 910 912 906 898 895 893 892 892 889 888 891 895 896 895 896 896 894 894 895 893 892 891 882 872 869 867 867 868 866 864 863 860 858 856 854 852 850 847 845 844 843 840 837 835 833 830 828 826 824 823 822 820 818 816 814 812 811 809 806 804 803 800 798 796 794 792 790 787 785 782 780 778 776 774 771 769 767 764 762 760 759 758 757
905 909 909 913 917 907 895 894 893 891 892 891 889 891 895 897 896 897 897 895 895 895 894 894 891 880 869 868 868 867 866 866 865 863 859 857 855 853 850 847 846 845 843 841 838 836 834 832 830 827 824 823 822 820 819 816 814 812 810 808 806 804 802 800 798 796 793 791 790 787 785 783 780 778 775 773 770 768 764 762 759 757 756 755 754 754
907 910 910 916 917 903 894 897 898 896 893 888 886 891 895 898 897 896 896 894 892 894 895 892 884 874 870 871 869 867 866 865 863 861 859 857 854 850 848 846 846 844 842 839 837 836 834 831 828 826 824 823 821 819 817 814 812 809 808 806 803 801 799 797 795 793 791 789 787 785 783 780 778 775 772 769 767 764 760 758 755 754 753 752 751 750
907 911 912 914 914 905 898 901 902 896 889 884 887 892 895 897 898 897 896 894 891 890 888 883 875 872 873 872 869 868 865 862 860 858 857 855 852 849 846 846 846 843 840 839 837 835 833 830 827 825 823 822 819 817 815 812 810 808 806 804 801 799 797 795 793 791 788 785 784 782 780 777 774 772 769 767 765 762 759 757 754 753 751 749 748 747
907 912 911 910 913 908 902 906 905 890 880 885 891 892 892 893 895 894 889 886 886 884 880 877 875 874 873 870 867 865 860 858 857 855 854 853 850 847 846 845 844 842 840 838 836 833 831 828 826 824 822 820 817 815 812 810 808 806 804 802 799 797 796 793 790 788 785 783 781 778 776 773 771 769 767 764 762 759 757 755 752 750 749 747 745 744
905 908 907 909 913 908 906 914 911 888 877 887 894 891 891 893 893 894 888 879 878 880 877 877 876 873 870 868 864 860 856 854 854 853 852 850 847 846 846 844 842 840 839 837 834 831 829 828 826 823 819 817 815 812 811 809 806 804 801 799 797 795 793 790 788 785 783 781 778 775 773 771 768 766 764 761 759 756 754 752 750 748 747 745 743 741
900 901 906 911 911 907 909 916 912 894 884 889 894 891 891 893 893 896 892 879 872 875 876 875 873 870 867 865 861 858 855 853 851 849 849 847 846 846 845 843 841 840 837 835 832 830 829 827 824 821 817 815 813 811 810 807 805 802 799 796 794 792 789 787 785 783 781 778 775 773 771 768 766 763 761 758 756 754 752 750 748 746 744 742 739 737
897 896 903 910 908 907 912 916 916 905 888 882 887 887 886 888 888 890 891 879 868 870 873 872 869 866 863 861 859 857 856 853 850 846 845 845 845 844 842 841 840 837 835 833 831 829 827 825 822 820 817 814 812 810 808 805 803 800 796 793 791 789 787 785 783 781 778 776 773 771 769 766 764 761 759 756 754 752 749 747 744 742 741 739 736 735
896 896 902 910 910 910 915 918 918 906 884 875 881 883 883 885 884 886 888 878 867 868 870 869 868 865 861 860 858 858 859 856 849 843 842 843 842 841 840 837 835 834 832 831 830 828 825 822 819 817 815 813 810 808 806 803 800 797 794 791 789 787 785 783 780 778 776 773 771 769 767 765 762 759 756 754 751 749 746 744 741 739 738 736 734 732
899 902 906 910 910 909 913 915 911 898 882 875 879 881 881 881 882 888 886 871 863 867 867 865 865 862 859 859 858 858 861 857 848 841 841 842 840 839 838 835 832 831 829 828 827 825 822 820 817 814 812 810 808 806 803 801 797 794 792 790 788 786 783 780 778 776 773 771 769 767 765 762 760 757 754 751 748 746 743 741 739 737 735 733 731 730
903 907 909 908 907 908 910 910 904 892 879 875 877 879 878 877 882 889 880 864 860 864 863 862 862 859 858 859 858 856 855 852 847 842 840 841 839 837 836 834 831 829 827 826 824 822 819 817 815 812 810 808 805 803 800 798 795 792 790 788 786 783 781 778 776 773 771 769 767 765 762 760 757 755 752 749 746 743 741 739 737 735 733 731 729 727
899 904 904 903 905 908 910 910 903 888 875 873 875 875 876 880 884 880 868 861 863 862 859 859 859 857 856 856 855 853 849 846 845 842 840 840 838 835 833 831 828 827 825 824 821 819 817 814 812 810 808 806 803 800 797 795 793 791 788 786 783 781 778 776 773 771 769 767 764 762 760 757 755 752 749 747 744 741 738 737 735 733 731 728 726 724
897 898 897 900 903 905 909 911 899 876 867 871 873 873 875 878 875 867 862 861 862 860 857 857 855 855 855 852 850 848 845 843 842 840 838 837 835 833 831 828 826 824 823 821 819 817 814 811 809 808 805 803 801 798 795 793 790 788 786 783 781 778 776 773 771 769 767 764 762 760 757 755 752 750 747 744 742 739 736 734 732 730 728 726 724 722
897 895 893 898 901 900 901 896 876 858 859 868 869 869 870 868 864 863 863 860 857 856 856 854 852 852 852 848 846 844 842 840 838 837 835 833 831 830 827 825 824 822 820 818 817 814 812 810 807 805 802 800 798 796 794 791 788 786 784 781 778 776 773 771 769 767 764 762 760 757 755 752 750 747 745 742 739 737 734 732 730 728 726 725 723 720
886 886 884 887 890 889 883 871 857 853 858 862 862 862 863 861 860 862 861 858 856 855 853 852 850 849 848 846 844 841 839 837 835 834 833 830 827 826 824 822 821 820 817 816 814 812 810 808 805 803 800 797 796 793 791 789 787 784 781 779 776 774 771 769 767 765 762 760 757 755 752 750 747 745 742 740 738 735 733 730 728 726 725 723 721 719
879 883 884 883 883 881 870 859 855 856 856 856 857 858 857 857 858 858 856 855 854 852 851 851 848 846 846 844 841 839 837 835 833 832 830 827 824 822 821 819 818 817 815 813 811 809 808 806 803 801 797 795 793 791 789 787 785 782 779 776 774 771 769 767 765 762 760 758 755 753 750 747 744 742 740 738 736 734 732 729 727 725 723 722 720 719
880 884 884 882 883 882 868 855 855 856 852 852 854 853 853 854 854 854 854 852 851 850 849 849 847 844 843 842 839 837 835 834 832 829 827 824 821 819 818 817 815 814 812 811 809 807 805 803 800 798 795 793 791 788 786 784 782 779 776 774 772 769 767 765 763 760 758 756 753 751 748 745 742 740 738 736 734 732 730 728 726 724 722 720 719 717
878 883 882 879 880 878 863 851 852 854 851 851 851 849 849 850 849 850 851 849 848 847 846 845 845 843 841 838 837 836 834 833 831 828 824 822 819 817 816 815 813 811 809 807 806 804 802 800 798 795 793 790 788 786 784 781 779 777 774 772 770 768 765 763 761 759 756 754 751 749 746 744 741 738 736 734 732 730 728 726 725 723 720 719 717 715
878 881 878 873 874 872 861 851 850 850 847 847 848 847 847 847 847 848 847 846 845 844 842 842 842 840 839 837 836 834 832 830 829 826 823 819 817 816 815 813 811 809 806 805 803 802 800 798 795 793 790 788 786 783 781 779 777 774 771 770 768 766 763 761 759 757 755 752 749 747 744 742 740 737 735 732 730 728 726 725 723 721 719 717 716 714
875 872 871 872 871 866 855 847 846 847 842 840 842 844 844 844 845 844 843 843 842 841 840 839 836 836 837 836 835 834 831 828 826 823 820 818 816 815 813 811 809 807 804 802 801 799 797 795 793 790 788 785 783 781 778 777 774 771 770 768 765 763 762 759 757 755 753 750 748 745 743 740 738 736 734 731 729 726 724 722 721 720 718 715 714 712
862 857 860 863 859 850 842 840 844 846 841 835 837 839 840 840 841 840 840 840 839 839 838 836 834 833 833 833 834 833 830 826 823 820 818 816 815 814 811 809 807 804 802 800 798 796 794 792 790 788 785 782 780 778 776 774 771 769 768 766 763 762 760 758 756 754 751 749 746 744 741 739 736 734 732 730 727 725 722 719 717 716 716 714 712 710